User: anonymous   Login
Location: Kalberh�ni
(46.4610°N, 7.2453°E)
Time: 07:38:48
(UTC+00:00)
Language:

CZ-2D R/B - Orbit

View from above orbital plane
View from above orbital plane
View from above satellite
View from above satellite

Ground track
Ground track

The orbit data is extracted from the following two-line orbital elements,

1 37932U 11068C   21267.87134639  .00000022  00000-0  29404-4 0  9996
2 37932  98.6938 202.6266 0036594 199.6726 228.6404 14.22082640511057
Epoch (UTC): 24 September 2021 20:54:44
Eccentricity: 0.0036594
inclination: 98.6938°
perigee height: 792 km
apogee height: 844 km
right ascension of ascending node: 202.6266°
argument of perigee: 199.6726°
revolutions per day: 14.22082640
mean anomaly at epoch: 228.6404°
orbit number at epoch: 51105

The dashed part of the orbit path shows where the satellite is in the earth's shadow,  

DLR